TimeCST,TemperatureF,Dew PointF,Humidity,Sea Level PressureIn,VisibilityMPH,Wind Direction,Wind SpeedMPH,Gust SpeedMPH,PrecipitationIn,Events,Conditions,WindDirDegrees,DateUTC
12:15 AM,37.4,21.2,52,30.26,10.0,SSW,12.7,-,N/A,,Clear,200,2013-01-19 06:15:00
12:35 AM,39.2,21.2,49,30.26,10.0,SSW,18.4,21.9,N/A,,Clear,210,2013-01-19 06:35:00
12:55 AM,39.2,23.0,52,30.25,10.0,SSW,17.3,-,N/A,,Clear,200,2013-01-19 06:55:00
1:15 AM,39.2,21.2,49,30.25,10.0,SSW,15.0,-,N/A,,Clear,200,2013-01-19 07:15:00
1:35 AM,39.2,21.2,49,30.25,10.0,SSW,13.8,-,N/A,,Clear,210,2013-01-19 07:35:00
1:55 AM,39.2,21.2,49,30.25,10.0,SSW,16.1,-,N/A,,Clear,200,2013-01-19 07:55:00
2:15 AM,39.2,23.0,52,30.25,10.0,SSW,17.3,21.9,N/A,,Clear,210,2013-01-19 08:15:00
2:35 AM,39.2,23.0,52,30.25,10.0,SSW,15.0,-,N/A,,Clear,210,2013-01-19 08:35:00
2:55 AM,39.2,21.2,49,30.25,10.0,SW,11.5,-,N/A,,Clear,220,2013-01-19 08:55:00
3:15 AM,37.4,21.2,52,30.25,10.0,WSW,8.1,-,N/A,,Clear,240,2013-01-19 09:15:00
3:35 AM,35.6,21.2,56,30.24,10.0,SW,8.1,-,N/A,,Clear,220,2013-01-19 09:35:00
3:55 AM,35.6,21.2,56,30.24,10.0,SW,8.1,-,N/A,,Clear,220,2013-01-19 09:55:00
4:15 AM,37.4,21.2,52,30.24,10.0,SW,11.5,-,N/A,,Clear,220,2013-01-19 10:15:00
4:35 AM,37.4,21.2,52,30.24,10.0,SW,10.4,-,N/A,,Clear,220,2013-01-19 10:35:00
4:55 AM,35.6,21.2,56,30.24,10.0,SW,10.4,-,N/A,,Clear,220,2013-01-19 10:55:00
5:15 AM,37.4,21.2,52,30.23,10.0,SSW,12.7,-,N/A,,Clear,210,2013-01-19 11:15:00
5:35 AM,37.4,23.0,56,30.23,10.0,SSW,13.8,-,N/A,,Clear,210,2013-01-19 11:35:00
6:15 AM,37.4,23.0,56,30.23,10.0,SSW,15.0,-,N/A,,Clear,210,2013-01-19 12:15:00
6:35 AM,37.4,21.2,52,30.23,10.0,SSW,15.0,-,N/A,,Clear,210,2013-01-19 12:35:00
6:55 AM,37.4,21.2,52,30.23,10.0,SSW,11.5,19.6,N/A,,Clear,210,2013-01-19 12:55:00
7:15 AM,37.4,23.0,56,30.23,10.0,SW,12.7,-,N/A,,Clear,220,2013-01-19 13:15:00
7:35 AM,37.4,23.0,56,30.23,10.0,SW,12.7,18.4,N/A,,Clear,220,2013-01-19 13:35:00
7:55 AM,39.2,24.8,56,30.22,10.0,SSW,17.3,21.9,N/A,,Clear,210,2013-01-19 13:55:00
8:15 AM,39.2,24.8,56,30.23,10.0,SW,16.1,-,N/A,,Clear,220,2013-01-19 14:15:00
8:35 AM,41.0,24.8,53,30.22,10.0,SSW,20.7,25.3,N/A,,Clear,210,2013-01-19 14:35:00
8:55 AM,42.8,26.6,53,30.22,10.0,SSW,18.4,26.5,N/A,,Clear,210,2013-01-19 14:55:00
9:15 AM,-9999,-9999,N/A,30.21,10.0,SSW,23.0,28.8,N/A,,Clear,210,2013-01-19 15:15:00
9:35 AM,-9999,-9999,N/A,30.21,10.0,SSW,23.0,28.8,N/A,,Clear,210,2013-01-19 15:35:00
9:55 AM,46.4,28.4,50,30.21,10.0,SSW,21.9,26.5,N/A,,Clear,210,2013-01-19 15:55:00
10:15 AM,46.4,28.4,50,30.20,10.0,SSW,20.7,29.9,N/A,,Clear,210,2013-01-19 16:15:00
10:36 AM,48.2,30.2,50,30.19,10.0,SSW,19.6,27.6,N/A,,Clear,210,2013-01-19 16:36:00
10:55 AM,-9999,-9999,N/A,30.17,10.0,SW,20.7,31.1,N/A,,Clear,220,2013-01-19 16:55:00
11:35 AM,-9999,-9999,N/A,30.14,10.0,SSW,23.0,28.8,N/A,,Clear,210,2013-01-19 17:35:00
11:55 AM,53.6,32.0,44,30.12,10.0,SSW,19.6,27.6,N/A,,Clear,210,2013-01-19 17:55:00
12:15 PM,-9999,-9999,N/A,30.10,10.0,SW,23.0,33.4,N/A,,Clear,220,2013-01-19 18:15:00
12:35 PM,-9999,-9999,N/A,30.09,10.0,SSW,24.2,33.4,N/A,,Clear,210,2013-01-19 18:35:00
12:55 PM,-9999,-9999,N/A,30.08,10.0,SSW,25.3,29.9,N/A,,Clear,210,2013-01-19 18:55:00
1:15 PM,-9999,-9999,N/A,30.07,10.0,SSW,18.4,28.8,N/A,,Clear,210,2013-01-19 19:15:00
1:35 PM,-9999,-9999,N/A,30.06,10.0,SSW,28.8,33.4,N/A,,Clear,210,2013-01-19 19:35:00
1:55 PM,-9999,-9999,N/A,30.05,10.0,SSW,27.6,35.7,N/A,,Clear,210,2013-01-19 19:55:00
2:15 PM,55.4,33.8,44,30.05,10.0,SSW,25.3,32.2,N/A,,Clear,210,2013-01-19 20:15:00
2:35 PM,55.4,33.8,44,30.04,10.0,SSW,18.4,34.5,N/A,,Clear,210,2013-01-19 20:35:00
2:55 PM,55.4,33.8,44,30.03,10.0,SSW,20.7,31.1,N/A,,Clear,210,2013-01-19 20:55:00
3:15 PM,55.4,33.8,44,30.03,10.0,SSW,21.9,29.9,N/A,,Clear,210,2013-01-19 21:15:00
3:35 PM,55.4,33.8,44,30.03,10.0,SSW,24.2,28.8,N/A,,Clear,210,2013-01-19 21:35:00
3:55 PM,53.6,33.8,47,30.02,10.0,SSW,20.7,26.5,N/A,,Clear,210,2013-01-19 21:55:00
4:15 PM,53.6,32.0,44,30.01,10.0,SSW,21.9,27.6,N/A,,Clear,200,2013-01-19 22:15:00
4:35 PM,51.8,32.0,47,30.01,10.0,SSW,21.9,27.6,N/A,,Clear,200,2013-01-19 22:35:00
4:55 PM,51.8,30.2,44,30.00,10.0,SSW,18.4,25.3,N/A,,Clear,210,2013-01-19 22:55:00
5:15 PM,51.8,30.2,44,30.01,10.0,SSW,17.3,24.2,N/A,,Clear,210,2013-01-19 23:15:00
5:35 PM,50.0,30.2,47,30.03,10.0,SW,13.8,-,N/A,,Clear,230,2013-01-19 23:35:00
5:55 PM,48.2,30.2,50,30.04,10.0,SW,17.3,-,N/A,,Clear,220,2013-01-19 23:55:00
6:15 PM,48.2,30.2,50,30.04,10.0,SW,17.3,-,N/A,,Clear,220,2013-01-20 00:15:00
6:35 PM,48.2,30.2,50,30.05,10.0,SW,16.1,-,N/A,,Clear,220,2013-01-20 00:35:00
6:55 PM,48.2,30.2,50,30.05,10.0,SW,15.0,-,N/A,,Clear,220,2013-01-20 00:55:00
7:15 PM,46.4,30.2,53,30.05,10.0,SW,15.0,-,N/A,,Clear,220,2013-01-20 01:15:00
7:35 PM,46.4,30.2,53,30.06,10.0,SW,15.0,-,N/A,,Clear,220,2013-01-20 01:35:00
7:55 PM,46.4,28.4,50,30.06,10.0,SW,15.0,-,N/A,,Clear,220,2013-01-20 01:55:00
8:15 PM,46.4,28.4,50,30.06,10.0,SW,17.3,-,N/A,,Clear,220,2013-01-20 02:15:00
8:35 PM,46.4,30.2,53,30.06,10.0,SW,17.3,24.2,N/A,,Clear,220,2013-01-20 02:35:00
8:55 PM,46.4,30.2,53,30.06,10.0,SW,17.3,21.9,N/A,,Clear,220,2013-01-20 02:55:00
9:15 PM,46.4,30.2,53,30.07,10.0,SW,18.4,23.0,N/A,,Clear,230,2013-01-20 03:15:00
9:35 PM,46.4,30.2,53,30.07,10.0,SW,16.1,-,N/A,,Clear,230,2013-01-20 03:35:00
9:55 PM,46.4,30.2,53,30.07,10.0,SW,16.1,-,N/A,,Clear,230,2013-01-20 03:55:00
10:15 PM,44.6,30.2,57,30.08,10.0,WSW,15.0,-,N/A,,Clear,240,2013-01-20 04:15:00
10:35 PM,44.6,30.2,57,30.09,10.0,WSW,16.1,-,N/A,,Clear,240,2013-01-20 04:35:00
10:55 PM,44.6,30.2,57,30.09,10.0,WSW,16.1,21.9,N/A,,Clear,240,2013-01-20 04:55:00
11:15 PM,44.6,30.2,57,30.08,10.0,SW,15.0,20.7,N/A,,Clear,230,2013-01-20 05:15:00
11:35 PM,44.6,30.2,57,30.08,10.0,WSW,15.0,-,N/A,,Clear,240,2013-01-20 05:35:00